Regional Weather Roundup
Issued by NWS

Home | Current Version | Previous Version | Text Only | Print | Product List | Glossary On
Versions: 1 2 3 4 5 6 7 8 9 10 11 12 13 14 15 16 17 18 19 20 21 22 23 24 25 26 27 28 29 30 31 32 33 34 35 36 37 38 39 40 41 42 43 44 45 46 47 48 49 50
000
ASUS45 KREV 180910
RWRNV
NEVADA REGIONAL WEATHER ROUNDUP
NATIONAL WEATHER SERVICE RENO NV
100 AM PST THU DEC 18 2014

NOTE: "FAIR" INDICATES FEW OR NO CLOUDS BELOW 12,000 FEET WITH NO
SIGNIFICANT WEATHER AND/OR OBSTRUCTIONS TO VISIBILITY.

NVZ001-003-004-181000-
WESTERN NEVADA

CITY           SKY/WX    TMP DP  RH WIND       PRES   REMARKS
RENO           PTCLDY    34  28  79 CALM      30.05S
CARSON CITY    CLOUDY    32  23  69 CALM      30.05S
MINDEN         MOCLDY    30  23  74 CALM      30.06
SLIDE MTN        N/A     19  18  93 S9          N/A
PYRAMID LAKE     N/A     41 N/A N/A W5          N/A
FALLON         MOCLDY    32  26  78 SW6       30.05R
LOVELOCK       MOCLDY    30  24  78 N3        30.04S
HAWTHORNE      CLEAR     34  28  80 CALM      30.05R
$$

NVZ002-CAZ072-073-181000-
NORTHERN AND CENTRAL SIERRA

CITY           SKY/WX    TMP DP  RH WIND       PRES   REMARKS
S. LAKE TAHOE  CLOUDY    33  24  69 CALM      30.04R
TRUCKEE        CLOUDY    32  27  80 W3        30.06R
SQUAW VLY 8000   N/A     25  27 100 VRB17       N/A
SUSANVILLE     CLOUDY    37  32  81 CALM      30.05
BLUE CANYON    CLOUDY    33  30  88 SE5       30.07F FOG
MAMMOTH LAKES    N/A     18  16  93 CALM        N/A
BRIDGEPORT     CLOUDY    24  18  77 CALM      30.01S
$$

NVZ030-031-036-181000-
NORTHERN NEVADA

CITY           SKY/WX    TMP DP  RH WIND       PRES   REMARKS
ELKO           CLOUDY    27  26  96 CALM      30.06S
WINNEMUCCA     CLOUDY    31  27  85 SE5       30.04S
WENDOVER       CLEAR     21  18  86 CALM      30.07S
$$

NVZ035-037-181000-
CENTRAL NEVADA

CITY           SKY/WX    TMP DP  RH WIND       PRES   REMARKS
ELY            CLOUDY    26  21  81 S7        30.06S
EUREKA           N/A     29  27  92 CALM      30.05S
$$

NVZ013-014-181000-
SOUTH CENTRAL NEVADA

CITY           SKY/WX    TMP DP  RH WIND       PRES   REMARKS
TONOPAH        CLOUDY    34  32  92 CALM      30.07S
$$

NVZ017-020-022-181000-
SOUTHERN NEVADA

CITY           SKY/WX    TMP DP  RH WIND       PRES   REMARKS
LAS VEGAS      CLOUDY    49  43  80 S3        30.04F
N. LAS VEGAS   CLOUDY    48  43  82 E6        30.08S
NELLIS AFB     CLOUDY    49  44  84 NE9       30.08S
HENDERSON      CLOUDY    46  40  79 S9        30.09F
MERCURY        MOCLDY    41  39  93 CALM      30.07S
$$


USA.gov is the U.S. government's official web portal to all federal, state and local government web resources and services.